Location: Stilling
(56.0622°N, 9.9882°E)
Time: 00:28:41
(UTC+00:00)

Cosmos 1408 Rocket - Pass Details

Date: 13 July 2020
Orbit: 602 x 630 km, 82.6° (Epoch: 03 August)

Event Time Altitude Azimuth Distance (km) Brightness Sun altitude
Exits shadow 22:30:56 13° 196° (SSW) 1,815 5.4 -11.4°
Maximum altitude 22:34:54 78° 282° (WNW) 646 3.7 -11.5°
Drops below altitude 10° 22:39:24 10° 10° (N) 2,019 7.4 -11.7°
Sets 22:41:40 0° 12° (NNE) 2,934 8.4 -11.7°
